Regional Weather Roundup
Issued by NWS

Home | Current Version | Previous Version | Graphics & Text | Print | Product List | Glossary Off
Versions: 1 2 3 4 5 6 7 8 9 10 11 12 13 14 15 16 17 18 19 20 21 22 23 24 25 26 27 28 29 30 31 32 33 34 35 36 37 38 39 40 41 42 43 44 45 46 47 48 49 50

000
ASUS43 KTOP 231208
RWRKS

WEATHER ROUNDUP FOR KANSAS
NATIONAL WEATHER SERVICE GOODLAND KS
700 AM CDT SAT SEP 23 2017

NOTE:  "FAIR" INDICATES FEW OR NO CLOUDS BELOW 12,000 FEET WITH NO
SIGNIFICANT WEATHER AND/OR OBSTRUCTIONS TO VISIBILITY.

KSZ001>006-013>018-027>032-041>047-231300-
NORTHWEST KANSAS

CITY           SKY/WX    TMP DP  RH WIND       PRES   REMARKS
GOODLAND       PTCLDY    67  61  81 S9        29.86R
6HR MIN TEMP:  67; 6HR MAX TEMP:  73;

HAYS           CLEAR     71  64  78 SE8       29.90R
HILL CITY      MOCLDY    73  66  78 S9G18     29.87R
6HR MIN TEMP:  73; 6HR MAX TEMP:  78;

RUSSELL        CLEAR     72  63  73 S20       29.88R
6HR MIN TEMP:  72; 6HR MAX TEMP:  78;

$$

KSZ061>065-074>080-084>089-231300-
SOUTHWEST KANSAS

CITY           SKY/WX    TMP DP  RH WIND       PRES   REMARKS
DODGE CITY     CLEAR     70  64  81 S17       29.91R
6HR MIN TEMP:  70; 6HR MAX TEMP:  74;

ELKHART          N/A     62  62 100 S14         N/A
GARDEN CITY    CLEAR     67  63  87 SE12      29.90R
6HR MIN TEMP:  67; 6HR MAX TEMP:  73;

GREAT BEND     CLEAR     72  64  76 S14       29.91R
LIBERAL        PTCLDY    66  63  88 S14       29.91R
PRATT          PTCLDY    70  62  75 S14       29.94R
6HR MIN TEMP:  70; 6HR MAX TEMP:  75;

$$

KSZ066>073-081>083-090>101-231300-
SOUTHEAST KANSAS

CITY           SKY/WX    TMP DP  RH WIND       PRES   REMARKS
CHANUTE        CLEAR     69  66  90 SE6       30.00R
6HR MIN TEMP:  68; 6HR MAX TEMP:  72;

COFFEYVILLE    CLEAR     68  66  93 CALM      29.99R
6HR MIN TEMP:  68; 6HR MAX TEMP:  72;

HUTCHINSON     CLEAR     70  65  84 S7        29.94R
6HR MIN TEMP:  70; 6HR MAX TEMP:  77;

MEDICINE LODGE   N/A     69  63  81 E7        29.93R
NEWTON         CLEAR     67  64  90 SE9       29.97R
PARSONS        CLEAR     67  65  93 CALM      30.00R
6HR MIN TEMP:  67; 6HR MAX TEMP:  75;

WICHITA INTL   PTCLDY    70  65  84 SE7       29.95R
6HR MIN TEMP:  70; 6HR MAX TEMP:  76;

WICHITA JABRA  CLEAR     68  66  93 S6        29.95S
6HR MIN TEMP:  68; 6HR MAX TEMP:  75;

WICHITA MCCONL CLEAR     70  64  79 S7        29.96R
WINFIELD       CLEAR     70  66  87 SE7       29.97R
6HR MIN TEMP:  69; 6HR MAX TEMP:  74;

$$

KSZ007>012-019>026-033>040-048>060-102>105-231300-
NORTHEAST KANSAS

CITY           SKY/WX    TMP DP  RH WIND       PRES   REMARKS
CONCORDIA      CLEAR     70  67  90 S13       29.91S
6HR MIN TEMP:  70; 6HR MAX TEMP:  75;

EMPORIA        CLEAR     67  64  90 S7        29.98R
6HR MIN TEMP:  67; 6HR MAX TEMP:  71;

LAWRENCE       CLEAR     68  67  96 E7        29.98R
6HR MIN TEMP:  67; 6HR MAX TEMP:  71;

MANHATTAN      PTCLDY    71  66  84 S5        29.94R
6HR MIN TEMP:  71; 6HR MAX TEMP:  77;

MARYSVILLE     CLEAR     70  66  88 SE5       29.94S
OLATHE IND     CLEAR     70  66  87 SE8       30.01R
6HR MIN TEMP:  68; 6HR MAX TEMP:  73;

OLATHE EXE     CLEAR     67  67 100 SE3       30.00R
6HR MIN TEMP:  67; 6HR MAX TEMP:  71;

SALINA         CLEAR     75  64  68 S10       29.93R
6HR MIN TEMP:  75; 6HR MAX TEMP:  80;

TOPEKA BILLARD CLEAR     69  67  93 E5        29.97R
6HR MIN TEMP:  68; 6HR MAX TEMP:  74;

TOPEKA FORBES  CLEAR     70  67  90 SE5       29.97R
6HR MIN TEMP:  70; 6HR MAX TEMP:  75;

$$




USA.gov is the U.S. government's official web portal to all federal, state and local government web resources and services.